Date String (YYYY-MM-DD hh:mm:ss) UTC,Instrument flags,absolute air pressure of the measurement (hPa),sample flow rate (lpm),inlet stack bypass flow (lpm),air temperature of the measurement (°C),ambient temperature measured by the external sensor (°C),aerosol sample conditioner tube jacket temperature (°C),OPC LED temperature (°C),internal box temperature (°C),relative humidity of the measurement (%),span deviation,mass concentration of particles derived from Lorenz-Mie calculation of OPC scattering (μg/m³),mass concentration of particles derived from Lorenz-Mie calculation of OPC scattering (μg/m³),mass concentration of particles derived from Lorenz-Mie calculation of OPC scattering (μg/m³)
DateTimeUTC,F1_M11,P_M11,Q1_M11,Q2_M11,T1_M11,T2_M11,T3_M11,T4_M11,T5_M11,U1_M11,ZSPAN_M11,X0_M11,X2_M11,X1_M11
2024-04-12 00:00:00,SystemResetWarning,0828.9,4.99,000.00,025.5,023.1,000.0,034.5,026.7,012.6,0000.0,0027.87,0006.76,0004.25
2024-04-12 00:01:00,SystemResetWarning,0829.0,5.00,000.00,025.6,023.5,000.0,034.4,027.0,012.4,0000.0,0027.63,0006.83,0004.23
2024-04-12 00:02:00,SystemResetWarning,0829.0,5.01,000.00,025.6,023.9,000.0,034.3,027.2,012.4,0000.0,0027.09,0006.88,0004.21
2024-04-12 00:03:00,SystemResetWarning,0829.0,5.00,000.00,025.6,024.2,000.0,034.3,027.3,012.4,0000.0,0025.77,0006.86,0004.19
2024-04-12 00:04:00,SystemResetWarning,0829.1,4.99,000.00,025.7,024.4,000.0,034.3,027.5,012.5,0000.0,0025.85,0006.86,0004.18
2024-04-12 00:05:00,SystemResetWarning,0829.1,4.99,000.00,025.7,024.6,000.0,034.3,027.6,012.8,0000.0,0026.50,0006.87,0004.16
2024-04-12 00:06:00,SystemResetWarning,0829.1,5.02,000.00,025.8,024.8,000.0,034.2,027.6,012.3,0000.0,0026.60,0006.88,0004.12
2024-04-12 00:07:00,SystemResetWarning,0829.1,5.00,000.00,025.8,025.0,000.0,034.2,027.7,012.0,0000.0,0024.67,0006.77,0004.08
2024-04-12 00:08:00,SystemResetWarning,0829.1,4.99,000.00,025.9,025.1,000.0,034.2,027.8,012.1,0000.0,0024.58,0006.76,0004.08
2024-04-12 00:09:00,SystemResetWarning,0829.1,4.99,000.00,025.9,025.2,000.0,034.3,027.8,011.8,0000.0,0023.84,0006.79,0004.06
2024-04-12 00:10:00,SystemResetWarning,0829.1,5.00,000.00,026.0,025.3,000.0,034.3,027.9,011.7,0000.0,0021.77,0006.78,0004.05
2024-04-12 00:11:00,SystemResetWarning,0829.1,5.00,000.00,026.0,025.4,000.0,034.3,027.9,011.6,0000.0,0020.82,0006.75,0004.05
2024-04-12 00:12:00,SystemResetWarning,0829.1,5.01,000.00,026.0,025.4,000.0,034.3,028.0,011.6,0000.0,0019.98,0006.66,0004.04
2024-04-12 00:13:00,SystemResetWarning,0829.1,5.01,000.00,026.1,025.5,000.0,034.3,028.0,011.6,0000.0,0019.75,0006.54,0004.03
2024-04-12 00:14:00,SystemResetWarning,0829.1,4.98,000.00,026.1,025.6,000.0,034.4,028.1,011.8,0000.0,0019.32,0006.44,0004.05
2024-04-12 00:15:00,SystemResetWarning,0829.1,5.00,000.00,026.2,025.6,000.0,034.4,028.1,012.0,0000.0,0019.11,0006.37,0004.04
2024-04-12 00:16:00,SystemResetWarning,0829.1,5.01,000.00,026.2,025.7,000.0,034.4,028.2,011.7,0000.0,0018.85,0006.33,0004.03
2024-04-12 00:17:00,SystemResetWarning,0829.1,5.00,000.00,026.3,025.7,000.0,034.5,028.2,011.5,0000.0,0019.50,0006.30,0004.04
2024-04-12 00:18:00,SystemResetWarning,0829.1,5.00,000.00,026.3,025.8,000.0,034.5,028.2,011.7,0000.0,0019.65,0006.36,0004.05
2024-04-12 00:19:00,SystemResetWarning,0829.1,5.00,000.00,026.3,025.8,000.0,034.5,028.3,011.6,0000.0,0019.63,0006.31,0004.02
2024-04-12 00:20:00,SystemResetWarning,0829.1,4.98,000.00,026.3,025.0,000.0,034.6,027.8,011.9,0000.0,0019.98,0006.29,0004.01
2024-04-12 00:21:00,SystemResetWarning,0829.1,5.01,000.00,025.9,022.8,000.0,034.6,026.6,011.8,0000.0,0019.50,0006.29,0004.01
2024-04-12 00:22:00,SystemResetWarning,0829.1,5.01,000.00,025.5,022.5,000.0,034.6,026.3,012.2,0000.0,0020.76,0006.29,0003.99
2024-04-12 00:23:00,SystemResetWarning,0829.2,4.99,000.00,025.4,022.8,000.0,034.4,026.5,012.3,0000.0,0021.51,0006.27,0003.98
2024-04-12 00:24:00,SystemResetWarning,0829.1,5.00,000.00,025.4,023.2,000.0,034.3,026.8,012.4,0000.0,0022.35,0006.27,0003.97
2024-04-12 00:25:00,SystemResetWarning,0829.2,5.00,000.00,025.5,023.6,000.0,034.2,027.0,012.3,0000.0,0022.92,0006.31,0003.96
2024-04-12 00:26:00,SystemResetWarning,0829.1,5.01,000.00,025.5,023.9,000.0,034.2,027.2,012.1,0000.0,0023.48,0006.42,0003.96
2024-04-12 00:27:00,SystemResetWarning,0829.1,5.02,000.00,025.5,024.2,000.0,034.1,027.3,012.0,0000.0,0023.68,0006.54,0003.98
2024-04-12 00:28:00,SystemResetWarning,0829.1,4.99,000.00,025.6,024.4,000.0,034.1,027.4,012.0,0000.0,0023.83,0006.50,0003.99
2024-04-12 00:29:00,SystemResetWarning,0829.1,4.99,000.00,025.6,024.6,000.0,034.1,027.5,012.5,0000.0,0023.90,0006.45,0003.99
2024-04-12 00:30:00,SystemResetWarning,0829.1,5.00,000.00,025.7,024.8,000.0,034.1,027.6,012.6,0000.0,0024.41,0006.52,0004.01
2024-04-12 00:31:00,SystemResetWarning,0829.1,5.00,000.00,025.7,025.0,000.0,034.1,027.6,012.7,0000.0,0025.17,0006.57,0004.01
2024-04-12 00:32:00,SystemResetWarning,0829.1,5.00,000.00,025.8,025.1,000.0,034.1,027.7,012.4,0000.0,0025.21,0006.61,0004.01
2024-04-12 00:33:00,SystemResetWarning,0829.1,5.00,000.00,025.8,025.2,000.0,034.2,027.8,012.2,0000.0,0024.37,0006.63,0004.01
2024-04-12 00:34:00,SystemResetWarning,0829.1,5.00,000.00,025.9,025.3,000.0,034.2,027.9,012.3,0000.6,0024.13,0006.65,0004.00
2024-04-12 00:35:00,SystemResetWarning,0829.1,5.00,000.00,026.0,025.4,000.0,034.2,027.9,012.4,0002.1,0024.67,0006.73,0004.02
2024-04-12 00:36:00,SystemResetWarning,0829.1,5.01,000.00,026.0,025.5,000.0,034.2,027.9,012.4,0002.3,0025.38,0006.76,0004.01
2024-04-12 00:37:00,SystemResetWarning,0829.1,5.00,000.00,026.1,025.5,000.0,034.3,028.0,012.4,0000.6,0025.12,0006.70,0004.00
2024-04-12 00:38:00,SystemResetWarning,0829.1,5.00,000.00,026.1,025.6,000.0,034.3,028.0,012.1,0000.0,0023.82,0006.60,0003.98
2024-04-12 00:39:00,SystemResetWarning,0829.1,5.00,000.00,026.1,025.7,000.0,034.3,028.1,011.9,0000.0,0022.69,0006.57,0003.96
2024-04-12 00:40:00,SystemResetWarning,0829.1,4.99,000.00,026.2,025.7,000.0,034.3,028.1,012.1,0000.0,0022.77,0006.62,0003.95
2024-04-12 00:41:00,SystemResetWarning,0829.1,5.00,000.00,026.2,025.8,000.0,034.4,028.2,012.1,0000.0,0022.11,0006.54,0003.92
2024-04-12 00:42:00,SystemResetWarning,0829.1,5.00,000.00,026.3,025.8,000.0,034.4,028.2,012.0,0000.6,0020.56,0006.45,0003.91
2024-04-12 00:43:00,SystemResetWarning,0829.1,5.00,000.00,026.3,025.8,000.0,034.5,028.2,012.2,0000.0,0021.70,0006.37,0003.88
2024-04-12 00:44:00,SystemResetWarning,0829.1,5.00,000.00,026.4,025.9,000.0,034.5,028.3,012.2,0000.0,0022.96,0006.36,0003.86
2024-04-12 00:45:00,SystemResetWarning,0829.1,5.00,000.00,026.4,025.9,000.0,034.5,028.3,012.2,0000.0,0023.16,0006.36,0003.84
2024-04-12 00:46:00,SystemResetWarning,0829.1,5.00,000.00,026.4,025.4,000.0,034.6,028.0,012.2,0000.0,0023.03,0006.34,0003.83
2024-04-12 00:47:00,SystemResetWarning,0829.1,5.00,000.00,026.0,023.1,000.0,034.6,026.7,012.5,0000.0,0021.68,0006.37,0003.82
2024-04-12 00:48:00,SystemResetWarning,0829.0,5.01,000.00,025.6,022.5,000.0,034.6,026.3,012.8,0000.0,0022.46,0006.36,0003.80
2024-04-12 00:49:00,SystemResetWarning,0829.1,5.01,000.00,025.5,022.8,000.0,034.5,026.4,012.9,0000.0,0022.41,0006.36,0003.79
2024-04-12 00:50:00,SystemResetWarning,0829.1,5.00,000.00,025.5,023.2,000.0,034.3,026.7,013.1,0000.0,0022.50,0006.33,0003.78
2024-04-12 00:51:00,SystemResetWarning,0829.1,5.00,000.00,025.5,023.6,000.0,034.3,027.0,012.8,0000.0,0022.71,0006.29,0003.78
2024-04-12 00:52:00,SystemResetWarning,0829.1,5.00,000.00,025.5,023.9,000.0,034.2,027.2,012.8,0000.0,0023.84,0006.29,0003.77
2024-04-12 00:53:00,SystemResetWarning,0829.1,5.00,000.00,025.6,024.2,000.0,034.2,027.3,012.6,0000.0,0024.16,0006.33,0003.77
2024-04-12 00:54:00,SystemResetWarning,0829.1,5.00,000.00,025.6,024.5,000.0,034.2,027.4,012.5,0000.0,0023.56,0006.32,0003.78
2024-04-12 00:55:00,SystemResetWarning,0829.1,5.00,000.00,025.7,024.7,000.0,034.1,027.5,012.4,0000.0,0022.70,0006.28,0003.77
2024-04-12 00:56:00,SystemResetWarning,0829.1,5.00,000.00,025.7,024.8,000.0,034.1,027.6,012.5,0000.0,0022.71,0006.25,0003.78
2024-04-12 00:57:00,SystemResetWarning,0829.2,5.00,000.00,025.8,025.0,000.0,034.1,027.7,012.3,0000.0,0023.25,0006.14,0003.76
2024-04-12 00:58:00,SystemResetWarning,0829.2,4.99,000.00,025.8,025.1,000.0,034.2,027.7,012.2,0000.0,0023.02,0006.08,0003.76
2024-04-12 00:59:00,SystemResetWarning,0829.2,5.00,000.00,025.9,025.2,000.0,034.2,027.8,012.3,0000.0,0022.55,0006.03,0003.75
